Flag for Germany Weather past 2 weeks in Fürth, Bavaria, Germany

Now
82 °F

Passing clouds.


Feels Like: 83 °F
Forecast: 62 / 85 °F
Wind: 5 mph from Southwest

Location: Nuernberg

Current Time: Aug 31, 2015 at 11:29:16 AM

Latest Report: Aug 31, 2015 at 10:50 AM


Visibility: N/A

Pressure: 29.98 "Hg

Humidity: 51%

Dew point: 63 °F

Location of FürthLocation

Historic Weather in Fürth — Graph

°F

Fürth temperature yesterday

Maximum temperature yesterday: 93 °F (at 3:50 PM)
Minimum temperature yesterday: 61 °F (at 5:50 AM)
Average temperature yesterday: 78 °F

Past Weeks' High & Low Weather Summary

 TemperatureHumidityPressure
High93 °F (Aug 30, 3:50 PM)100% (Aug 19, 1:20 AM)30.27 "Hg (Aug 19, 1:20 AM)
Low46 °F (Aug 22, 5:50 AM)26% (Aug 26, 3:20 PM)29.71 "Hg (Aug 24, 3:20 PM)
Average66 °F70%30.03 "Hg
* Reported Aug 16 10:20 AM — Aug 31 10:20 AM, Fürth, Weather by CustomWeather, © 2015

Note: Actual official high and low records may vary slightly from our data, if they occured in-between our weather recording intervals... More about our weather records

Advertising

Fürth weather history for previous 24 hours

 ConditionsComfort  
Time TempWeatherWind HumidityBarometerVisibility
10:20 AM
Mon, Aug 31
81 °FSunny.2 mph51%29.98 "Hg10 mi
9:50 AM79 °FPassing clouds.3 mph58%29.98 "HgN/A
9:20 AM75 °FPassing clouds.3 mph61%29.98 "HgN/A
8:50 AM73 °FSunny.2 mph65%29.98 "Hg10 mi
8:20 AM70 °FSunny.2 mph73%29.98 "Hg10 mi
7:50 AM68 °FSunny.3 mph78%29.98 "Hg10 mi
7:20 AM64 °FClear.6 mph83%30.01 "Hg10 mi
6:50 AM63 °FClear.6 mph88%30.01 "Hg10 mi
6:20 AM63 °FClear.5 mph83%30.01 "Hg10 mi
5:50 AM63 °FClear.1 mph88%30.01 "Hg10 mi
5:20 AM64 °FFog.1 mph83%30.01 "HgN/A
4:50 AM64 °FFog.1 mph83%29.98 "HgN/A
4:20 AM64 °FClear.1 mph83%29.98 "Hg10 mi
3:50 AM68 °FClear.3 mph73%30.01 "Hg10 mi
3:20 AM66 °FClear.6 mph78%30.01 "Hg10 mi
2:50 AM70 °FClear.1 mph73%30.01 "Hg10 mi
2:20 AM70 °FClear.2 mph73%30.01 "Hg10 mi
1:50 AM70 °FClear.1 mph73%30.01 "Hg10 mi
1:20 AM70 °FClear.1 mph69%30.01 "Hg10 mi
12:50 AM70 °FClear.3 mph73%30.04 "Hg10 mi
12:20 AM72 °FClear.1 mph69%30.04 "Hg10 mi
11:50 PM
Sun, Aug 30
73 °FClear.2 mph65%30.04 "Hg10 mi
11:20 PM75 °FClear.1 mph57%30.04 "Hg10 mi
10:50 PM73 °FPassing clouds.3 mph65%30.04 "HgN/A
10:20 PM75 °FClear.2 mph61%30.04 "Hg10 mi
9:20 PM81 °FClear.2 mph48%30.04 "Hg10 mi
8:50 PM81 °FPassing clouds.3 mph51%30.04 "HgN/A
8:20 PM84 °FSunny.3 mph43%30.04 "Hg10 mi
7:50 PM86 °FSunny.2 mph38%30.04 "Hg10 mi
7:20 PM90 °FSunny.1 mph36%30.01 "Hg10 mi
6:50 PM93 °FSunny.1 mph30%30.01 "Hg10 mi
6:20 PM93 °FSunny.2 mph28%30.01 "Hg10 mi
5:50 PM93 °FPassing clouds.3 mph28%30.04 "HgN/A
5:20 PM93 °FSunny.3 mph28%30.04 "Hg10 mi
4:50 PM93 °FSunny.3 mph28%30.04 "Hg10 mi
4:20 PM93 °FSunny.3 mph26%30.04 "Hg10 mi
3:50 PM93 °FSunny.2 mph26%30.07 "Hg10 mi
3:20 PM91 °FPassing clouds.5 mph30%30.07 "HgN/A
2:50 PM91 °FPassing clouds.5 mph30%30.07 "HgN/A
2:20 PM91 °FPassing clouds.7 mph32%30.09 "HgN/A
1:50 PM90 °FPassing clouds.6 mph31%30.09 "HgN/A
1:20 PM90 °FSunny.3 mph33%30.09 "Hg10 mi
12:50 PM88 °FSunny.3 mph35%30.09 "Hg10 mi
12:20 PM86 °FPassing clouds.3 mph46%30.12 "HgN/A
11:50 AM84 °FSunny.3 mph48%30.12 "Hg10 mi
11:20 AM81 °FPassing clouds.5 mph54%30.12 "HgN/A
Weather by CustomWeather, © 2015

See weather overviewHow to use our weather pages